OBJECT E, 43755

Orbit data source: Space-Track

You're viewing an Uncataloged Satellite

Recently launched and/or uncataloged satellites may have evolving metadata. Metadata may include but not limited to: Owner, Maufacturer, Bus, Motor, and Mission.

OBJECT E, 43755 is a satellite owned by NIIPP (CIS) in LEO that was launched on Fri, 30 Nov 2018 UTC launched from the Plesetsk Missile And Space Complex (PKMTR). Unknown objects in Earth's orbit typically refer to objects detected orbiting the Earth but have not yet been identified or cataloged. These objects could be anything from previously untracked satellites, spent rocket stages, debris from satellite collisions, or even natural meteoroids temporarily captured by Earth's gravity.

Loading next visibility...
Identifier
43755, 2018-097E
Orbit
LEO
Country
Flag of CISCIS
Related business
Manufacturer
NIIPP
Mission
Spacecraft
Bus & Motor
Unknown
Mass
Unknown
Launch date (UTC)
2018-11-30 (8 years ago)
Launch vehicle
Unknown
Launch site
Plesetsk Missile And Space Complex (PKMTR)
Object type
Unknown
Shape & HBR
Box, 0.1 m
Radar Cross Section
0.060 m², Medium (>0.1 m² and < 1m²)

Expand to show TLE details & history
Last TLE update: 9 hours ago

TLE from 9 hours ago
0 OBJECT E
1 43755U 18097E   26172.12534385  .00000013  00000-0  14740-4 0  9992
2 43755  82.5143  93.9234 0215160 287.1377  70.6267 12.80917253353118
Epoch: 2026-06-21T03:00Z
TLE epoch observation values (Epoch: 2026-06-21T03:00:29.708Z)
Latitude
0.00002°
Longitude
139.46952°
Altitude
1,288.674 km
Speed
7.236 km/s
True Right ascension
06h 15m 41s
True Declination
0° 00' 00"
Sunlit
Object was in daylight at epoch
Visualization orbit readout
Latitude
Unknown
Longitude
Unknown
Altitude
Unknown
Speed
Unknown
Apparent Right ascension
Unknown
Apparent Declination
Unknown
Sunlit
N/A
Visualization observer readout
Local Sidereal Time
22:28:52
Azimuth
Unknown
Elevation
Unknown
Doppler factor
Unknown
Orbital elements
Apogee altitude
1,501.037 km
Perigee altitude
1,169.122 km
Semi-major axis
7,713.216 km
Eccentricity
0.02152
Inclination
82.5143°
RAAN
93.9234°
Arg. of periapsis
287.1377°
True anomaly
72.97292°
Mean anomaly
70.6267°
Eccentric anomaly
71.79779°
Mean motion
3.20398 °/min
Orbital period
112.36 mins
BSTAR
0.00001474
Loading maneuver chart data...
Computing Atmospheric mass density...
Loading historical data...
Loading historical data...
Loading historical data...
Loading historical data...
Loading historical data...
Loading historical data...
Loading historical data...
Other satellites on launch #97 in the year 2018 (2018-11-30 UTC)

Documentation

Showing up to 5 results
|